sat.trackr.live / text

‹ back to catalog

STARLINK-30469

NORAD 57896 · 2023-146F

PAYLOAD ACTIVE UNKNOWN

§ Identity

Operator
Country
US
Launch date
2023-09-20
Launch site
AFETR
Launch vehicle
Mass (kg)
RCS (m²)

Purposes: comms

External: N2YO · Heavens-Above · Gunter

§ Orbital elements

Epoch: 2026-05-24T15:35:09.963168Z

Period
94.27 min
Inclination
43.0003°
Eccentricity
0.0001387
Mean motion
15.27580384 rev/d
Perigee alt
482.1 km
Apogee alt
484.0 km
Semi-major
6,861.2 km
B*
1.7951e-4
RAAN
245.1932°
Arg perigee
271.3022°
Mean anomaly
88.7671°
Rev number
14,867

§ Raw data

STARLINK-304691 57896U 23146F   26144.64942087  .00004681  00000+0  17951-3 0  99922 57896  43.0003 245.1932 0001387 271.3022  88.7671 15.27580384148675

JSON: /api/v1/satellites/57896 · /tle

For live sub-satellite position, see the globe view (requires WebGL).

§ Visibility from observer

Set your observer location to see the next 7 days of passes ≥ 10°. The values pass through the URL so the page stays shareable.

No JS? Fill the form by hand. The geolocation button needs JavaScript.